User: anonymous   Login
Location: Laterina
(43.5167°N, 11.7167°E)
Time: 03:40:52
(UTC+00:00)
Language:

CZ-2C R/B - Orbit

View from above orbital plane
View from above orbital plane
View from above satellite
View from above satellite

Ground track
Ground track

The orbit data is extracted from the following two-line orbital elements,

1 43173U 18011E   20332.74512464 +.00004595 +00000-0 +13278-3 0  9999
2 43173 034.9682 125.6545 0142221 049.1928 312.1025 15.25536175158373
Epoch (UTC): 27 November 2020 17:52:58
Eccentricity: 0.0142221
inclination: 34.9682°
perigee height: 391 km
apogee height: 587 km
right ascension of ascending node: 125.6545°
argument of perigee: 49.1928°
revolutions per day: 15.25536175
mean anomaly at epoch: 312.1025°
orbit number at epoch: 15837

The dashed part of the orbit path shows where the satellite is in the earth's shadow,  

DLR